NUUKSIO Weather Reports


time (UTC)temp
F
wind
direction
speed
knots
gust
knots
rain 1hr
in
rain 24hr
in
rain mn
in
humidity
%
barometer
mb
20260507064724 50 40 4.3 7.8 0.00 0.00 0.00 31 1015.8
20260507062724 49 40 5.2 10.4 0.00 0.00 0.00 33 1015.9
20260507060724 43 30 3.5 7.0 0.00 0.00 0.00 42 1015.9
20260507054724 44 25 3.5 6.1 0.00 0.00 0.00 39 1015.9
20260507052724 43 21 3.5 7.0 0.00 0.00 0.00 41 1015.9
20260507050723 43 37 3.5 8.7 0.00 0.00 0.00 42 1015.8
20260507044724 42 32 4.3 7.8 0.00 0.00 0.00 43 1015.7
20260507042724 41 34 5.2 9.6 0.00 0.00 0.00 46 1015.8
20260507040724 38 34 6.1 11.3 0.00 0.00 0.00 48 1015.8
20260507032724 37 24 6.1 9.6 0.00 0.00 0.00 50 1015.8
20260507030724 36 24 7.0 10.4 0.00 0.00 0.00 51 1015.6
20260507024723 36 23 6.1 10.4 0.00 0.00 0.00 51 1015.6
20260507022723 36 24 6.1 9.6 0.00 0.00 0.00 49 1015.6
20260507020723 36 21 7.0 11.3 0.00 0.00 0.00 48 1015.6
20260507014724 37 22 6.1 11.3 0.00 0.00 0.00 47 1015.5
20260507012723 37 20 7.0 11.3 0.00 0.00 0.00 47 1015.5
20260507010723 36 17 6.1 10.4 0.00 0.00 0.00 48 1015.5
20260507004723 36 23 7.0 10.4 0.00 0.00 0.00 49 1015.4
20260507002723 37 11 6.1 9.6 0.00 0.00 0.00 48 1015.3
20260507000723 36 10 6.1 9.6 0.00 0.00 0.00 48 1015.4
20260506234723 37 6 6.1 9.6 0.00 0.00 0.00 47 1015.3
20260506232723 37 8 6.1 9.6 0.00 0.00 0.00 46 1015.2
20260506230724 37 2 6.1 9.6 0.00 0.00 0.00 45 1015.2
20260506224722 38 3 5.2 8.7 0.00 0.00 0.00 43 1015.2
20260506222723 38 1 5.2 8.7 0.00 0.00 0.00 43 1015.2
20260506220723 38 353 5.2 9.6 0.00 0.00 0.00 44 1015.0
20260506214723 38 342 5.2 8.7 0.00 0.00 0.00 43 1014.9
20260506212723 39 327 5.2 7.8 0.00 0.00 0.00 41 1014.7
20260506210722 39 331 5.2 7.8 0.00 0.00 0.00 41 1014.7
20260506204722 39 325 5.2 7.8 0.00 0.00 0.00 40 1014.6
20260506202722 39 325 5.2 7.8 0.00 0.00 0.00 38 1014.6
20260506200722 40 321 5.2 7.0 0.00 0.00 0.00 37 1014.6
20260506194722 41 330 4.3 6.1 0.00 0.00 0.00 38 1014.4
20260506192722 41 330 5.2 6.1 0.00 0.00 0.00 47 1014.3
20260506190722 42 324 2.6 4.3 0.00 0.00 0.00 63 1014.3
20260506184722 42 328 1.7 5.2 0.00 0.00 0.00 63 1014.2
20260506182723 45 189 0.9 2.6 0.00 0.00 0.00 57 1014.1
20260506180722 46 193 2.6 6.1 0.00 0.00 0.00 56 1014.0
20260506174722 46 182 3.5 7.8 0.00 0.00 0.00 56 1014.0
20260506172721 46 183 4.3 7.8 0.00 0.00 0.00 55 1013.9
20260506164720 47 187 4.3 8.7 0.00 0.00 0.00 54 1013.6
20260506162721 48 178 4.3 10.4 0.00 0.00 0.00 51 1013.6
20260506160721 49 187 5.2 11.3 0.00 0.00 0.00 49 1013.5
20260506152722 51 188 7.8 14.8 0.00 0.00 0.00 42 1013.4
20260506150721 51 175 7.0 14.8 0.00 0.00 0.00 44 1013.4
20260506144721 51 183 7.8 14.8 0.00 0.00 0.00 41 1013.6
20260506142721 52 200 4.3 10.4 0.00 0.00 0.00 40 1013.5
20260506140720 52 200 6.1 13.9 0.00 0.00 0.00 42 1013.5
20260506134720 51 178 7.0 13.0 0.00 0.00 0.00 40 1013.5
20260506132720 53 181 7.8 13.9 0.00 0.00 0.00 37 1013.5
20260506130720 53 162 4.3 10.4 0.00 0.00 0.00 38 1013.3
20260506124720 51 237 1.7 5.2 0.00 0.00 0.00 31 1013.7
20260506122720 55 286 5.2 12.2 0.00 0.00 0.00 25 1013.4
20260506120720 50 293 4.3 10.4 0.00 0.00 0.00 34 1013.6
20260506114721 51 283 5.2 9.6 0.00 0.00 0.00 31 1013.6
20260506112721 54 266 5.2 12.2 0.00 0.00 0.00 28 1013.4
20260506110721 54 259 5.2 9.6 0.00 0.00 0.00 27 1013.4
20260506104721 49 263 7.0 13.0 0.00 0.00 0.00 32 1013.5
20260506102721 52 276 7.0 13.0 0.00 0.00 0.00 26 1013.3
20260506100721 50 274 5.2 11.3 0.00 0.00 0.00 29 1013.4
20260506094721 53 232 7.0 12.2 0.00 0.00 0.00 32 1013.2
20260506092721 51 267 7.0 14.8 0.00 0.00 0.00 29 1013.1
20260506090721 50 257 7.0 13.0 0.00 0.00 0.00 38 1013.1
20260506084721 51 275 7.8 13.0 0.00 0.00 0.00 32 1013.0
20260506082721 49 267 7.8 13.0 0.00 0.00 0.00 37 1013.0
20260506080721 48 276 7.0 14.8 0.00 0.00 0.00 37 1012.9
20260506072721 47 276 6.1 13.9 0.00 0.00 0.00 45 1012.7
20260506070721 46 283 5.2 11.3 0.00 0.00 0.00 50 1012.6